Location: Arbon
(43.0005°N, 0.7472°E)
Time: 22:31:00
(UTC+00:00)

Explorer 7 - Pass Details

Date: 30 November 2020
Orbit: 484 x 678 km, 50.3° (Epoch: 25 January)

Event Time Altitude Azimuth Distance (km) Brightness Sun altitude
Rises 06:20:20 0° 300° (WNW) 2,769 - -8.6°
Reaches altitude 10° 06:22:41 10° 303° (WNW) 1,836 - -8.3°
Exits shadow 06:22:42 10° 304° (WNW) 1,829 8.8 -8.2°
Maximum altitude 06:26:48 63° 26° (NNE) 593 7.0 -7.6°
Drops below altitude 10° 06:30:41 10° 108° (ESE) 1,726 11.1 -6.9°
Sets 06:32:50 0° 112° (ESE) 2,587 13.1 -6.5°
